owner,sensor,date,latitude,longitude,vertical_datum,direction_of_sea_water_velocity,sea_water_speed,upward_sea_water_velocity,qcFlag 
TABS,ioos:station:wmo:42048:1,2012-04-01T00:00:00Z,27.9396,-96.8429,2.0,26.2689305,31.13542677,-99999.0,'11111222,11111222,99999999' 
TABS,ioos:station:wmo:42048:1,2012-04-01T00:30:00Z,27.9396,-96.8429,2.0,9.712474375,31.65368225,-99999.0,'11111222,11111222,99999999' 
TABS,ioos:station:wmo:42048:1,2012-04-01T01:00:00Z,27.9396,-96.8429,2.0,14.09288192,34.45705298,-99999.0,'11111222,11111222,99999999' 
TABS,ioos:station:wmo:42048:1,2012-04-01T01:30:00Z,27.9396,-96.8429,2.0,5.761285804,37.25818702,-99999.0,'11111222,11111222,99999999' 
TABS,ioos:station:wmo:42048:1,2012-04-01T02:00:00Z,27.9396,-96.8429,2.0,7.950886427,40.19638914,-99999.0,'11111222,11111222,99999999' 
TABS,ioos:station:wmo:42048:1,2012-04-01T02:30:00Z,27.9396,-96.8429,2.0,3.740794168,44.60502438,-99999.0,'11111222,11111222,99999999' 
TABS,ioos:station:wmo:42048:1,2012-04-01T03:00:00Z,27.9396,-96.8429,2.0,5.16153131,47.02065291,-99999.0,'11111222,11111222,99999999' 
TABS,ioos:station:wmo:42048:1,2012-04-01T03:30:00Z,27.9396,-96.8429,2.0,6.635237298,52.36069709,-99999.0,'11111222,11111222,99999999' 
TABS,ioos:station:wmo:42048:1,2012-04-01T04:00:00Z,27.9396,-96.8429,2.0,6.167057375,51.10573549,-99999.0,'11111222,11111222,99999999' 
TABS,ioos:station:wmo:42048:1,2012-04-01T04:30:00Z,27.9396,-96.8429,2.0,8.574835704,53.58899327,-99999.0,'11111222,11111222,99999999' 
TABS,ioos:station:wmo:42048:1,2012-04-01T05:00:00Z,27.9396,-96.8429,2.0,9.420546409,51.62622783,-99999.0,'11111222,11111222,99999999' 
TABS,ioos:station:wmo:42048:1,2012-04-01T05:30:00Z,27.9396,-96.8429,2.0,7.761833053,51.23943111,-99999.0,'11111222,11111222,99999999' 
TABS,ioos:station:wmo:42048:1,2012-04-01T06:00:00Z,27.9396,-96.8429,2.0,8.03424925,56.52478129,-99999.0,'11111222,11111222,99999999' 
TABS,ioos:station:wmo:42048:1,2012-04-01T06:30:00Z,27.9396,-96.8429,2.0,11.1886713,59.21543887,-99999.0,'11111222,11111222,99999999' 
TABS,ioos:station:wmo:42048:1,2012-04-01T07:00:00Z,27.9396,-96.8429,2.0,12.0559393,59.51256086,-99999.0,'11111222,11111222,99999999' 
TABS,ioos:station:wmo:42048:1,2012-04-01T07:30:00Z,27.9396,-96.8429,2.0,11.99965656,62.57734574,-99999.0,'11111222,11111222,99999999' 
TABS,ioos:station:wmo:42048:1,2012-04-01T08:00:00Z,27.9396,-96.8429,2.0,14.64805558,62.48073703,-99999.0,'11111222,11111222,99999999' 
TABS,ioos:station:wmo:42048:1,2012-04-01T08:30:00Z,27.9396,-96.8429,2.0,16.19695694,63.24003874,-99999.0,'11111222,11111222,99999999' 
TABS,ioos:station:wmo:42048:1,2012-04-01T09:00:00Z,27.9396,-96.8429,2.0,18.49698442,64.42828261,-99999.0,'11111222,11111222,99999999' 
TABS,ioos:station:wmo:42048:1,2012-04-01T09:30:00Z,27.9396,-96.8429,2.0,20.85099133,63.24168009,-99999.0,'11111222,11111222,99999999' 
TABS,ioos:station:wmo:42048:1,2012-04-01T10:00:00Z,27.9396,-96.8429,2.0,23.20106404,64.9310311,-99999.0,'11111222,11111222,99999999' 
TABS,ioos:station:wmo:42048:1,2012-04-01T10:30:00Z,27.9396,-96.8429,2.0,24.26274512,62.2263433,-99999.0,'11111222,11111222,99999999' 
TABS,ioos:station:wmo:42048:1,2012-04-01T11:00:00Z,27.9396,-96.8429,2.0,22.40353969,71.05281486,-99999.0,'11111222,11111222,99999999' 
TABS,ioos:station:wmo:42048:1,2012-04-01T11:30:00Z,27.9396,-96.8429,2.0,24.55804933,67.41856421,-99999.0,'11111222,11111222,99999999' 
TABS,ioos:station:wmo:42048:1,2012-04-01T12:00:00Z,27.9396,-96.8429,2.0,26.83957439,62.57037158,-99999.0,'11111222,11111222,99999999' 
TABS,ioos:station:wmo:42048:1,2012-04-01T12:30:00Z,27.9396,-96.8429,2.0,22.55906751,63.62849755,-99999.0,'11111222,11111222,99999999' 
TABS,ioos:station:wmo:42048:1,2012-04-01T13:00:00Z,27.9396,-96.8429,2.0,27.81146368,61.68534672,-99999.0,'11111222,11111222,99999999' 
TABS,ioos:station:wmo:42048:1,2012-04-01T13:30:00Z,27.9396,-96.8429,2.0,28.88050944,58.4493396,-99999.0,'11111222,11111222,99999999' 
TABS,ioos:station:wmo:42048:1,2012-04-01T14:00:00Z,27.9396,-96.8429,2.0,31.10924442,56.78679424,-99999.0,'11111222,11111222,99999999' 
TABS,ioos:station:wmo:42048:1,2012-04-01T14:30:00Z,27.9396,-96.8429,2.0,34.54793997,55.58164085,-99999.0,'11111222,11111222,99999999' 
TABS,ioos:station:wmo:42048:1,2012-04-01T15:00:00Z,27.9396,-96.8429,2.0,29.9350043,49.37725894,-99999.0,'11111222,11111222,99999999' 
TABS,ioos:station:wmo:42048:1,2012-04-01T15:30:00Z,27.9396,-96.8429,2.0,36.51029919,47.46493548,-99999.0,'11111222,11111222,99999999' 
TABS,ioos:station:wmo:42048:1,2012-04-01T16:00:00Z,27.9396,-96.8429,2.0,34.68628754,48.34110673,-99999.0,'11111222,11111222,99999999' 
TABS,ioos:station:wmo:42048:1,2012-04-01T16:30:00Z,27.9396,-96.8429,2.0,34.74893045,43.22961948,-99999.0,'11111222,11111222,99999999' 
TABS,ioos:station:wmo:42048:1,2012-04-01T17:00:00Z,27.9396,-96.8429,2.0,38.31145905,38.0040261,-99999.0,'11111222,11111222,99999999' 
TABS,ioos:station:wmo:42048:1,2012-04-01T17:30:00Z,27.9396,-96.8429,2.0,44.68147156,34.3305651,-99999.0,'11111222,11111222,99999999' 
TABS,ioos:station:wmo:42048:1,2012-04-01T18:00:00Z,27.9396,-96.8429,2.0,40.50952485,30.43538237,-99999.0,'11111222,11111222,99999999' 
TABS,ioos:station:wmo:42048:1,2012-04-01T18:30:00Z,27.9396,-96.8429,2.0,44.75951305,23.57514793,-99999.0,'11111222,11111222,99999999' 
TABS,ioos:station:wmo:42048:1,2012-04-01T19:00:00Z,27.9396,-96.8429,2.0,43.88924854,22.97821795,-99999.0,'11111222,11111222,99999999' 
TABS,ioos:station:wmo:42048:1,2012-04-01T19:30:00Z,27.9396,-96.8429,2.0,38.41292849,20.64948668,-99999.0,'11111222,11111222,99999999' 
TABS,ioos:station:wmo:42048:1,2012-04-01T20:00:00Z,27.9396,-96.8429,2.0,34.32584393,20.50020732,-99999.0,'11111222,11111222,99999999' 
TABS,ioos:station:wmo:42048:1,2012-04-01T20:30:00Z,27.9396,-96.8429,2.0,37.14134888,17.73819889,-99999.0,'11111222,11111222,99999999' 
TABS,ioos:station:wmo:42048:1,2012-04-01T21:00:00Z,27.9396,-96.8429,2.0,24.39214297,17.33752289,-99999.0,'11111222,11111222,99999999' 
TABS,ioos:station:wmo:42048:1,2012-04-01T21:30:00Z,27.9396,-96.8429,2.0,29.54215764,15.41389308,-99999.0,'11111222,11111222,99999999' 
TABS,ioos:station:wmo:42048:1,2012-04-01T22:00:00Z,27.9396,-96.8429,2.0,11.85276373,16.35878052,-99999.0,'11111222,11111222,99999999' 
TABS,ioos:station:wmo:42048:1,2012-04-01T22:30:00Z,27.9396,-96.8429,2.0,359.21492,16.78157621,-99999.0,'11111222,11144222,99999999' 
TABS,ioos:station:wmo:42048:1,2012-04-01T23:00:00Z,27.9396,-96.8429,2.0,357.1957399,17.78129635,-99999.0,'11111222,11111222,99999999' 
TABS,ioos:station:wmo:42048:1,2012-04-01T23:30:00Z,27.9396,-96.8429,2.0,346.9211173,19.31095544,-99999.0,'11111222,11111222,99999999' 
TABS,ioos:station:wmo:42048:1,2012-04-02T00:00:00Z,27.9396,-96.8429,2.0,333.9312172,19.11462529,-99999.0,'11111222,11111222,99999999' 
TABS,ioos:station:wmo:42048:1,2012-04-02T00:30:00Z,27.9396,-96.8429,2.0,341.5507885,24.96302065,-99999.0,'11111222,11111222,99999999' 
TABS,ioos:station:wmo:42048:1,2012-04-02T01:00:00Z,27.9396,-96.8429,2.0,335.4163563,28.4597962,-99999.0,'11111222,11111222,99999999' 
TABS,ioos:station:wmo:42048:1,2012-04-02T01:30:00Z,27.9396,-96.8429,2.0,333.1995946,33.7112459,-99999.0,'11111222,11111222,99999999' 
TABS,ioos:station:wmo:42048:1,2012-04-02T02:00:00Z,27.9396,-96.8429,2.0,336.9489634,35.2440761,-99999.0,'11111222,11111222,99999999' 
TABS,ioos:station:wmo:42048:1,2012-04-02T02:30:00Z,27.9396,-96.8429,2.0,334.2042443,39.31808871,-99999.0,'11111222,11111222,99999999' 
TABS,ioos:station:wmo:42048:1,2012-04-02T03:00:00Z,27.9396,-96.8429,2.0,335.7552785,42.42167842,-99999.0,'11111222,11111222,99999999' 
TABS,ioos:station:wmo:42048:1,2012-04-02T03:30:00Z,27.9396,-96.8429,2.0,334.9049488,42.36953859,-99999.0,'11111222,11111222,99999999' 
TABS,ioos:station:wmo:42048:1,2012-04-02T04:00:00Z,27.9396,-96.8429,2.0,338.6498074,46.00744505,-99999.0,'11111222,11111222,99999999' 
TABS,ioos:station:wmo:42048:1,2012-04-02T04:30:00Z,27.9396,-96.8429,2.0,340.8087724,45.26562603,-99999.0,'11111222,11111222,99999999' 
TABS,ioos:station:wmo:42048:1,2012-04-02T05:00:00Z,27.9396,-96.8429,2.0,338.6915268,52.47758569,-99999.0,'11111222,11111222,99999999' 
TABS,ioos:station:wmo:42048:1,2012-04-02T05:30:00Z,27.9396,-96.8429,2.0,341.1153289,49.12433613,-99999.0,'11111222,11111222,99999999' 
TABS,ioos:station:wmo:42048:1,2012-04-02T06:00:00Z,27.9396,-96.8429,2.0,340.9697827,49.89711214,-99999.0,'11111222,11111222,99999999' 
TABS,ioos:station:wmo:42048:1,2012-04-02T06:30:00Z,27.9396,-96.8429,2.0,345.1004157,53.74714876,-99999.0,'11111222,11111222,99999999' 
TABS,ioos:station:wmo:42048:1,2012-04-02T07:00:00Z,27.9396,-96.8429,2.0,346.0605897,54.67003292,-99999.0,'11111222,11111222,99999999' 
TABS,ioos:station:wmo:42048:1,2012-04-02T07:30:00Z,27.9396,-96.8429,2.0,345.5650248,58.16630382,-99999.0,'11111222,11111222,99999999' 
TABS,ioos:station:wmo:42048:1,2012-04-02T08:00:00Z,27.9396,-96.8429,2.0,352.5470755,60.20868791,-99999.0,'11111222,11111222,99999999' 
TABS,ioos:station:wmo:42048:1,2012-04-02T08:30:00Z,27.9396,-96.8429,2.0,351.6103003,58.94078469,-99999.0,'11111222,11111222,99999999' 
TABS,ioos:station:wmo:42048:1,2012-04-02T09:00:00Z,27.9396,-96.8429,2.0,355.4074867,57.07325994,-99999.0,'11111222,11111222,99999999' 
TABS,ioos:station:wmo:42048:1,2012-04-02T09:30:00Z,27.9396,-96.8429,2.0,11.27701197,54.30848921,-99999.0,'11111222,11111222,99999999' 
TABS,ioos:station:wmo:42048:1,2012-04-02T10:00:00Z,27.9396,-96.8429,2.0,1.141981025,51.69026311,-99999.0,'11111222,11111222,99999999' 
TABS,ioos:station:wmo:42048:1,2012-04-02T10:30:00Z,27.9396,-96.8429,2.0,356.6514634,57.00734163,-99999.0,'11111222,11111222,99999999' 
TABS,ioos:station:wmo:42048:1,2012-04-02T11:00:00Z,27.9396,-96.8429,2.0,359.3668741,60.61370307,-99999.0,'11111222,11144222,99999999' 
TABS,ioos:station:wmo:42048:1,2012-04-02T11:30:00Z,27.9396,-96.8429,2.0,2.027111623,60.78803336,-99999.0,'11111222,11111222,99999999' 
TABS,ioos:station:wmo:42048:1,2012-04-02T12:00:00Z,27.9396,-96.8429,2.0,1.50114293,62.61148217,-99999.0,'11111222,11111222,99999999' 
TABS,ioos:station:wmo:42048:1,2012-04-02T12:30:00Z,27.9396,-96.8429,2.0,4.12593165,56.98767937,-99999.0,'11111222,11111222,99999999' 
TABS,ioos:station:wmo:42048:1,2012-04-02T13:00:00Z,27.9396,-96.8429,2.0,3.370700144,58.34091617,-99999.0,'11111222,11111222,99999999' 
TABS,ioos:station:wmo:42048:1,2012-04-02T13:30:00Z,27.9396,-96.8429,2.0,5.851842287,60.2238134,-99999.0,'11111222,11111222,99999999' 
TABS,ioos:station:wmo:42048:1,2012-04-02T14:00:00Z,27.9396,-96.8429,2.0,8.707394438,61.4987821,-99999.0,'11111222,11111222,99999999' 
TABS,ioos:station:wmo:42048:1,2012-04-02T14:30:00Z,27.9396,-96.8429,2.0,13.32191661,52.513046,-99999.0,'11111222,11111222,99999999' 
TABS,ioos:station:wmo:42048:1,2012-04-02T15:00:00Z,27.9396,-96.8429,2.0,10.12052258,51.1051514,-99999.0,'11111222,11111222,99999999' 
TABS,ioos:station:wmo:42048:1,2012-04-02T15:30:00Z,27.9396,-96.8429,2.0,13.25457749,47.27944585,-99999.0,'11111222,11111222,99999999' 
TABS,ioos:station:wmo:42048:1,2012-04-02T16:00:00Z,27.9396,-96.8429,2.0,15.31567783,44.10639523,-99999.0,'11111222,11111222,99999999' 
TABS,ioos:station:wmo:42048:1,2012-04-02T16:30:00Z,27.9396,-96.8429,2.0,17.81003654,43.18979625,-99999.0,'11111222,11111222,99999999' 
TABS,ioos:station:wmo:42048:1,2012-04-02T17:00:00Z,27.9396,-96.8429,2.0,21.25066627,37.0813592,-99999.0,'11111222,11111222,99999999' 
TABS,ioos:station:wmo:42048:1,2012-04-02T17:30:00Z,27.9396,-96.8429,2.0,19.33171096,37.79068271,-99999.0,'11111222,11111222,99999999' 
TABS,ioos:station:wmo:42048:1,2012-04-02T18:00:00Z,27.9396,-96.8429,2.0,24.77027024,39.83497207,-99999.0,'11111222,11111222,99999999' 
TABS,ioos:station:wmo:42048:1,2012-04-02T18:30:00Z,27.9396,-96.8429,2.0,27.02128206,34.2710636,-99999.0,'11111222,11111222,99999999' 
TABS,ioos:station:wmo:42048:1,2012-04-02T19:00:00Z,27.9396,-96.8429,2.0,37.8732094,26.50206218,-99999.0,'11111222,11111222,99999999' 
TABS,ioos:station:wmo:42048:1,2012-04-02T19:30:00Z,27.9396,-96.8429,2.0,32.12104517,22.07980072,-99999.0,'11111222,11111222,99999999' 
TABS,ioos:station:wmo:42048:1,2012-04-02T20:00:00Z,27.9396,-96.8429,2.0,33.71487167,25.763053,-99999.0,'11111222,11111222,99999999' 
TABS,ioos:station:wmo:42048:1,2012-04-02T20:30:00Z,27.9396,-96.8429,2.0,32.68485998,21.81416971,-99999.0,'11111222,11111222,99999999' 
TABS,ioos:station:wmo:42048:1,2012-04-02T21:00:00Z,27.9396,-96.8429,2.0,33.90825244,21.13423053,-99999.0,'11111222,11111222,99999999' 
TABS,ioos:station:wmo:42048:1,2012-04-02T21:30:00Z,27.9396,-96.8429,2.0,28.98024742,19.42184852,-99999.0,'11111222,11111222,99999999' 
TABS,ioos:station:wmo:42048:1,2012-04-02T22:00:00Z,27.9396,-96.8429,2.0,34.9129308,20.14575141,-99999.0,'11111222,11111222,99999999' 
TABS,ioos:station:wmo:42048:1,2012-04-02T22:30:00Z,27.9396,-96.8429,2.0,20.18488056,21.85204109,-99999.0,'11111222,11111222,99999999' 
TABS,ioos:station:wmo:42048:1,2012-04-02T23:00:00Z,27.9396,-96.8429,2.0,35.97944539,14.02569428,-99999.0,'11111222,11111222,99999999' 
TABS,ioos:station:wmo:42048:1,2012-04-02T23:30:00Z,27.9396,-96.8429,2.0,42.03105744,14.60722082,-99999.0,'11111222,11111222,99999999' 
TABS,ioos:station:wmo:42048:1,2012-04-03T00:00:00Z,27.9396,-96.8429,2.0,11.82167116,11.86157662,-99999.0,'11111222,11111222,99999999' 
TABS,ioos:station:wmo:42048:1,2012-04-03T00:30:00Z,27.9396,-96.8429,2.0,5.314743701,12.95569373,-99999.0,'11111222,11111222,99999999' 
TABS,ioos:station:wmo:42048:1,2012-04-03T01:00:00Z,27.9396,-96.8429,2.0,10.65618133,10.65372235,-99999.0,'11111222,11111222,99999999' 
TABS,ioos:station:wmo:42048:1,2012-04-03T01:30:00Z,27.9396,-96.8429,2.0,357.5662902,17.89614484,-99999.0,'11111222,11111222,99999999' 
TABS,ioos:station:wmo:42048:1,2012-04-03T02:00:00Z,27.9396,-96.8429,2.0,352.1130182,15.01201186,-99999.0,'11111222,11111222,99999999' 
TABS,ioos:station:wmo:42048:1,2012-04-03T02:30:00Z,27.9396,-96.8429,2.0,333.1009626,16.86471168,-99999.0,'11111222,11111222,99999999' 
TABS,ioos:station:wmo:42048:1,2012-04-03T03:00:00Z,27.9396,-96.8429,2.0,336.7131549,12.74855678,-99999.0,'11111222,11111222,99999999' 
TABS,ioos:station:wmo:42048:1,2012-04-03T03:30:00Z,27.9396,-96.8429,2.0,331.6110231,14.47022115,-99999.0,'11111222,11111222,99999999' 
TABS,ioos:station:wmo:42048:1,2012-04-03T04:00:00Z,27.9396,-96.8429,2.0,334.4817972,17.87363701,-99999.0,'11111222,11111222,99999999' 
TABS,ioos:station:wmo:42048:1,2012-04-03T04:30:00Z,27.9396,-96.8429,2.0,329.5116037,17.58092432,-99999.0,'11111222,11111222,99999999' 
TABS,ioos:station:wmo:42048:1,2012-04-03T05:00:00Z,27.9396,-96.8429,2.0,323.1457064,14.97200053,-99999.0,'11111222,11111222,99999999' 
TABS,ioos:station:wmo:42048:1,2012-04-03T05:30:00Z,27.9396,-96.8429,2.0,333.9002472,15.97946808,-99999.0,'11111222,11111222,99999999' 
TABS,ioos:station:wmo:42048:1,2012-04-03T06:00:00Z,27.9396,-96.8429,2.0,330.025264,17.29306219,-99999.0,'11111222,11111222,99999999' 
TABS,ioos:station:wmo:42048:1,2012-04-03T06:30:00Z,27.9396,-96.8429,2.0,324.5907937,19.22624508,-99999.0,'11111222,11111222,99999999' 
TABS,ioos:station:wmo:42048:1,2012-04-03T07:00:00Z,27.9396,-96.8429,2.0,327.3048379,20.77110493,-99999.0,'11111222,11111222,99999999' 
TABS,ioos:station:wmo:42048:1,2012-04-03T07:30:00Z,27.9396,-96.8429,2.0,333.7314296,18.16605901,-99999.0,'11111222,11111222,99999999' 
TABS,ioos:station:wmo:42048:1,2012-04-03T08:00:00Z,27.9396,-96.8429,2.0,318.4956289,18.09316446,-99999.0,'11111222,11111222,99999999' 
TABS,ioos:station:wmo:42048:1,2012-04-03T08:30:00Z,27.9396,-96.8429,2.0,322.8643221,19.38020898,-99999.0,'11111222,11111222,99999999' 
TABS,ioos:station:wmo:42048:1,2012-04-03T09:00:00Z,27.9396,-96.8429,2.0,312.329675,22.15650694,-99999.0,'11111222,11111222,99999999' 
TABS,ioos:station:wmo:42048:1,2012-04-03T09:30:00Z,27.9396,-96.8429,2.0,318.5729092,20.31222538,-99999.0,'11111222,11111222,99999999' 
TABS,ioos:station:wmo:42048:1,2012-04-03T10:00:00Z,27.9396,-96.8429,2.0,321.8521983,21.15926511,-99999.0,'11111222,11111222,99999999' 
TABS,ioos:station:wmo:42048:1,2012-04-03T10:30:00Z,27.9396,-96.8429,2.0,315.5608541,23.85185318,-99999.0,'11111222,11111222,99999999' 
TABS,ioos:station:wmo:42048:1,2012-04-03T11:00:00Z,27.9396,-96.8429,2.0,320.2014263,21.91863363,-99999.0,'11111222,11111222,99999999' 
TABS,ioos:station:wmo:42048:1,2012-04-03T11:30:00Z,27.9396,-96.8429,2.0,323.8383194,28.1661499,-99999.0,'11111222,11111222,99999999' 
TABS,ioos:station:wmo:42048:1,2012-04-03T12:00:00Z,27.9396,-96.8429,2.0,326.5525179,30.82496553,-99999.0,'11111222,11111222,99999999' 
TABS,ioos:station:wmo:42048:1,2012-04-03T12:30:00Z,27.9396,-96.8429,2.0,331.3402638,32.29699212,-99999.0,'11111222,11111222,99999999' 
TABS,ioos:station:wmo:42048:1,2012-04-03T13:00:00Z,27.9396,-96.8429,2.0,328.1604816,36.67925981,-99999.0,'11111222,11111222,99999999' 
TABS,ioos:station:wmo:42048:1,2012-04-03T13:30:00Z,27.9396,-96.8429,2.0,332.5815915,33.92044369,-99999.0,'11111222,11111222,99999999' 
TABS,ioos:station:wmo:42048:1,2012-04-03T14:00:00Z,27.9396,-96.8429,2.0,329.8429,34.97374015,-99999.0,'11111222,11111222,99999999' 
TABS,ioos:station:wmo:42048:1,2012-04-03T14:30:00Z,27.9396,-96.8429,2.0,335.0202177,34.76179656,-99999.0,'11111222,11111222,99999999' 
TABS,ioos:station:wmo:42048:1,2012-04-03T15:00:00Z,27.9396,-96.8429,2.0,334.5448262,37.41196065,-99999.0,'11111222,11111222,99999999' 
TABS,ioos:station:wmo:42048:1,2012-04-03T15:30:00Z,27.9396,-96.8429,2.0,342.1018979,35.79222821,-99999.0,'11111222,11111222,99999999' 
TABS,ioos:station:wmo:42048:1,2012-04-03T16:00:00Z,27.9396,-96.8429,2.0,344.5447938,32.60921649,-99999.0,'11111222,11111222,99999999' 
TABS,ioos:station:wmo:42048:1,2012-04-03T16:30:00Z,27.9396,-96.8429,2.0,344.0980306,30.98580481,-99999.0,'11111222,11111222,99999999' 
TABS,ioos:station:wmo:42048:1,2012-04-03T17:00:00Z,27.9396,-96.8429,2.0,344.3729943,29.43819628,-99999.0,'11111222,11111222,99999999' 
TABS,ioos:station:wmo:42048:1,2012-04-03T17:30:00Z,27.9396,-96.8429,2.0,349.5795224,28.30688962,-99999.0,'11111222,11111222,99999999' 
TABS,ioos:station:wmo:42048:1,2012-04-03T18:00:00Z,27.9396,-96.8429,2.0,354.4214069,29.41934738,-99999.0,'11111222,11111222,99999999' 
TABS,ioos:station:wmo:42048:1,2012-04-03T18:30:00Z,27.9396,-96.8429,2.0,352.7470328,23.84077599,-99999.0,'11111222,11111222,99999999' 
TABS,ioos:station:wmo:42048:1,2012-04-03T19:00:00Z,27.9396,-96.8429,2.0,357.7935014,26.74983738,-99999.0,'11111222,11111222,99999999' 
TABS,ioos:station:wmo:42048:1,2012-04-03T19:30:00Z,27.9396,-96.8429,2.0,3.886021447,26.56106173,-99999.0,'11111222,11111222,99999999' 
TABS,ioos:station:wmo:42048:1,2012-04-03T20:00:00Z,27.9396,-96.8429,2.0,10.69515173,24.30215011,-99999.0,'11111222,11111222,99999999' 
TABS,ioos:station:wmo:42048:1,2012-04-03T20:30:00Z,27.9396,-96.8429,2.0,3.382292176,21.52749405,-99999.0,'11111222,11111222,99999999' 
TABS,ioos:station:wmo:42048:1,2012-04-03T21:00:00Z,27.9396,-96.8429,2.0,9.17661617,19.43877825,-99999.0,'11111222,11111222,99999999' 
TABS,ioos:station:wmo:42048:1,2012-04-03T21:30:00Z,27.9396,-96.8429,2.0,5.019611296,17.48706093,-99999.0,'11111222,11111222,99999999' 
TABS,ioos:station:wmo:42048:1,2012-04-03T22:00:00Z,27.9396,-96.8429,2.0,356.6508506,15.74689811,-99999.0,'11111222,11111222,99999999' 
TABS,ioos:station:wmo:42048:1,2012-04-03T22:30:00Z,27.9396,-96.8429,2.0,2.479169476,14.10319822,-99999.0,'11111222,11111222,99999999' 
TABS,ioos:station:wmo:42048:1,2012-04-03T23:00:00Z,27.9396,-96.8429,2.0,358.35883,13.61558666,-99999.0,'11111222,11111222,99999999' 
TABS,ioos:station:wmo:42048:1,2012-04-03T23:30:00Z,27.9396,-96.8429,2.0,6.1874294,9.927829571,-99999.0,'11133222,11111222,99999999' 
TABS,ioos:station:wmo:42048:1,2012-04-04T00:00:00Z,27.9396,-96.8429,2.0,349.4169987,7.731519902,-99999.0,'11133222,11111222,99999999' 
TABS,ioos:station:wmo:42048:1,2012-04-04T00:30:00Z,27.9396,-96.8429,2.0,359.9091205,6.290007949,-99999.0,'11133222,11144222,99999999' 
TABS,ioos:station:wmo:42048:1,2012-04-04T01:00:00Z,27.9396,-96.8429,2.0,289.290422,4.449820221,-99999.0,'11133222,11111222,99999999' 
TABS,ioos:station:wmo:42048:1,2012-04-04T01:30:00Z,27.9396,-96.8429,2.0,317.7854756,3.929083863,-99999.0,'11133222,11111222,99999999' 
TABS,ioos:station:wmo:42048:1,2012-04-04T02:00:00Z,27.9396,-96.8429,2.0,327.1316084,2.32165889,-99999.0,'11133222,11111222,99999999' 
TABS,ioos:station:wmo:42048:1,2012-04-04T02:30:00Z,27.9396,-96.8429,2.0,336.5538077,3.94579523,-99999.0,'11133222,11111222,99999999' 
TABS,ioos:station:wmo:42048:1,2012-04-04T03:00:00Z,27.9396,-96.8429,2.0,282.5055917,2.632451329,-99999.0,'11133222,11111222,99999999' 
TABS,ioos:station:wmo:42048:1,2012-04-04T03:30:00Z,27.9396,-96.8429,2.0,319.8910948,5.55687862,-99999.0,'11133222,11111222,99999999' 
TABS,ioos:station:wmo:42048:1,2012-04-04T04:00:00Z,27.9396,-96.8429,2.0,301.7381461,7.490026702,-99999.0,'11133222,11111222,99999999' 
TABS,ioos:station:wmo:42048:1,2012-04-04T04:30:00Z,27.9396,-96.8429,2.0,301.1614138,6.474109977,-99999.0,'11133222,11111222,99999999' 
TABS,ioos:station:wmo:42048:1,2012-04-04T05:00:00Z,27.9396,-96.8429,2.0,301.5319323,6.922022826,-99999.0,'11133222,11111222,99999999' 
TABS,ioos:station:wmo:42048:1,2012-04-04T05:30:00Z,27.9396,-96.8429,2.0,291.6739945,6.660908346,-99999.0,'11133222,11111222,99999999' 
TABS,ioos:station:wmo:42048:1,2012-04-04T06:00:00Z,27.9396,-96.8429,2.0,274.5418641,4.925464445,-99999.0,'11133222,11111222,99999999' 
TABS,ioos:station:wmo:42048:1,2012-04-04T06:30:00Z,27.9396,-96.8429,2.0,315.8129654,3.988483421,-99999.0,'11133222,11111222,99999999' 
TABS,ioos:station:wmo:42048:1,2012-04-04T07:00:00Z,27.9396,-96.8429,2.0,7.594836068,2.118584433,-99999.0,'11133222,11111222,99999999' 
TABS,ioos:station:wmo:42048:1,2012-04-04T07:30:00Z,27.9396,-96.8429,2.0,240.6004856,2.261194375,-99999.0,'11133222,11111222,99999999' 
TABS,ioos:station:wmo:42048:1,2012-04-04T08:00:00Z,27.9396,-96.8429,2.0,115.8662963,1.833712082,-99999.0,'11133222,11111222,99999999' 
TABS,ioos:station:wmo:42048:1,2012-04-04T08:30:00Z,27.9396,-96.8429,2.0,179.1046179,3.200390601,-99999.0,'11133222,11111222,99999999' 
TABS,ioos:station:wmo:42048:1,2012-04-04T09:00:00Z,27.9396,-96.8429,2.0,187.4197871,2.168155898,-99999.0,'11133222,11111222,99999999' 
TABS,ioos:station:wmo:42048:1,2012-04-04T09:30:00Z,27.9396,-96.8429,2.0,154.0891639,3.524272975,-99999.0,'11133222,11111222,99999999' 
TABS,ioos:station:wmo:42048:1,2012-04-04T10:00:00Z,27.9396,-96.8429,2.0,132.8388203,2.250199991,-99999.0,'11133222,11111222,99999999' 
TABS,ioos:station:wmo:42048:1,2012-04-04T10:30:00Z,27.9396,-96.8429,2.0,217.3392269,2.440081966,-99999.0,'11133222,11111222,99999999' 
TABS,ioos:station:wmo:42048:1,2012-04-04T11:00:00Z,27.9396,-96.8429,2.0,160.8614256,4.636248483,-99999.0,'11133222,11111222,99999999' 
TABS,ioos:station:wmo:42048:1,2012-04-04T11:30:00Z,27.9396,-96.8429,2.0,131.9424985,4.77269316,-99999.0,'11133222,11111222,99999999' 
TABS,ioos:station:wmo:42048:1,2012-04-04T12:00:00Z,27.9396,-96.8429,2.0,147.0304627,3.08715079,-99999.0,'11133222,11111222,99999999' 
TABS,ioos:station:wmo:42048:1,2012-04-04T12:30:00Z,27.9396,-96.8429,2.0,125.9972179,4.202487359,-99999.0,'11133222,11111222,99999999' 
TABS,ioos:station:wmo:42048:1,2012-04-04T13:00:00Z,27.9396,-96.8429,2.0,124.483873,2.40208243,-99999.0,'11133222,11111222,99999999' 
TABS,ioos:station:wmo:42048:1,2012-04-04T13:30:00Z,27.9396,-96.8429,2.0,110.0611591,5.014229751,-99999.0,'11133222,11111222,99999999' 
TABS,ioos:station:wmo:42048:1,2012-04-04T14:00:00Z,27.9396,-96.8429,2.0,114.9678057,7.059773367,-99999.0,'11133222,11111222,99999999' 
TABS,ioos:station:wmo:42048:1,2012-04-04T14:30:00Z,27.9396,-96.8429,2.0,127.6161227,6.60256011,-99999.0,'11133222,11111222,99999999' 
TABS,ioos:station:wmo:42048:1,2012-04-04T15:00:00Z,27.9396,-96.8429,2.0,134.2720401,7.792945528,-99999.0,'11133222,11111222,99999999' 
TABS,ioos:station:wmo:42048:1,2012-04-04T15:30:00Z,27.9396,-96.8429,2.0,138.587129,9.267113898,-99999.0,'11133222,11111222,99999999' 
TABS,ioos:station:wmo:42048:1,2012-04-04T16:00:00Z,27.9396,-96.8429,2.0,136.9316501,7.761372301,-99999.0,'11133222,11111222,99999999' 